TimeCST,TemperatureF,Dew PointF,Humidity,Sea Level PressureIn,VisibilityMPH,Wind Direction,Wind SpeedMPH,Gust SpeedMPH,PrecipitationIn,Events,Conditions,WindDirDegrees,DateUTC
12:15 AM,35.6,24.8,65,30.45,10.0,Calm,Calm,-,N/A,,Clear,0,2012-11-14 06:15:00
12:35 AM,35.6,24.8,65,30.45,10.0,Calm,Calm,-,N/A,,Clear,0,2012-11-14 06:35:00
12:55 AM,32.0,26.6,80,30.45,10.0,Calm,Calm,-,N/A,,Clear,0,2012-11-14 06:55:00
1:15 AM,32.0,26.6,80,30.45,10.0,Calm,Calm,-,N/A,,Clear,0,2012-11-14 07:15:00
1:35 AM,32.0,26.6,80,30.45,10.0,Calm,Calm,-,N/A,,Clear,0,2012-11-14 07:35:00
1:55 AM,33.8,26.6,75,30.45,10.0,Calm,Calm,-,N/A,,Partly Cloudy,0,2012-11-14 07:55:00
2:15 AM,32.0,26.6,80,30.46,10.0,Calm,Calm,-,N/A,,Clear,0,2012-11-14 08:15:00
2:35 AM,32.0,26.6,80,30.46,3.0,Calm,Calm,-,N/A,,Haze,0,2012-11-14 08:35:00
2:55 AM,32.0,26.6,80,30.46,9.0,Calm,Calm,-,N/A,,Clear,0,2012-11-14 08:55:00
3:15 AM,32.0,26.6,80,30.46,10.0,Calm,Calm,-,N/A,,Clear,0,2012-11-14 09:15:00
3:35 AM,32.0,26.6,80,30.45,10.0,Calm,Calm,-,N/A,,Clear,0,2012-11-14 09:35:00
3:55 AM,32.0,28.4,87,30.45,10.0,Calm,Calm,-,N/A,,Clear,0,2012-11-14 09:55:00
4:15 AM,32.0,28.4,87,30.45,10.0,Calm,Calm,-,N/A,,Clear,0,2012-11-14 10:15:00
4:35 AM,32.0,30.2,93,30.45,9.0,Calm,Calm,-,N/A,,Clear,0,2012-11-14 10:35:00
4:55 AM,32.0,28.4,87,30.46,10.0,Calm,Calm,-,N/A,,Partly Cloudy,0,2012-11-14 10:55:00
5:15 AM,32.0,28.4,87,30.46,10.0,Calm,Calm,-,N/A,,Clear,0,2012-11-14 11:15:00
5:35 AM,32.0,28.4,87,30.47,10.0,Calm,Calm,-,N/A,,Clear,0,2012-11-14 11:35:00
5:55 AM,32.0,28.4,87,30.46,5.0,Calm,Calm,-,N/A,,Clear,0,2012-11-14 11:55:00
6:55 AM,32.0,30.2,93,30.46,10.0,SE,3.5,-,N/A,,Clear,130,2012-11-14 12:55:00
7:15 AM,32.0,28.4,87,30.47,10.0,Calm,Calm,-,N/A,,Clear,0,2012-11-14 13:15:00
7:35 AM,32.0,28.4,87,30.48,10.0,Calm,Calm,-,N/A,,Clear,0,2012-11-14 13:35:00
7:55 AM,32.0,32.0,100,30.49,10.0,Calm,Calm,-,N/A,,Clear,0,2012-11-14 13:55:00
8:15 AM,32.0,32.0,100,30.49,8.0,Calm,Calm,-,N/A,,Clear,0,2012-11-14 14:15:00
8:35 AM,33.8,30.2,87,30.49,9.0,Calm,Calm,-,N/A,,Clear,0,2012-11-14 14:35:00
8:55 AM,37.4,28.4,70,30.49,4.0,SE,4.6,-,N/A,,Haze,130,2012-11-14 14:55:00
9:15 AM,39.2,28.4,65,30.49,3.0,SSE,6.9,-,N/A,,Haze,150,2012-11-14 15:15:00
9:35 AM,39.2,28.4,65,30.49,5.0,Calm,Calm,-,N/A,,Haze,0,2012-11-14 15:35:00
9:55 AM,41.0,30.2,65,30.48,2.0,ESE,4.6,-,N/A,,Haze,120,2012-11-14 15:55:00
10:15 AM,41.0,28.4,61,30.48,10.0,South,4.6,-,N/A,,Clear,170,2012-11-14 16:15:00
10:35 AM,42.8,28.4,57,30.48,10.0,Calm,Calm,-,N/A,,Clear,0,2012-11-14 16:35:00
10:55 AM,44.6,26.6,49,30.47,7.0,Calm,Calm,-,N/A,,Clear,0,2012-11-14 16:55:00
11:15 AM,46.4,26.6,46,30.46,10.0,Calm,Calm,-,N/A,,Clear,0,2012-11-14 17:15:00
11:35 AM,46.4,26.6,46,30.45,10.0,Calm,Calm,-,N/A,,Clear,0,2012-11-14 17:35:00
11:55 AM,46.4,24.8,43,30.44,10.0,Calm,Calm,-,N/A,,Clear,0,2012-11-14 17:55:00
12:15 PM,46.4,24.8,43,30.43,10.0,South,5.8,-,N/A,,Clear,180,2012-11-14 18:15:00
12:35 PM,48.2,23.0,37,30.42,10.0,SSE,4.6,-,N/A,,Clear,160,2012-11-14 18:35:00
12:55 PM,48.2,23.0,37,30.41,10.0,SSE,5.8,-,N/A,,Clear,150,2012-11-14 18:55:00
1:15 PM,50.0,23.0,35,30.40,10.0,SSE,6.9,-,N/A,,Clear,150,2012-11-14 19:15:00
1:35 PM,50.0,23.0,35,30.39,10.0,SE,3.5,-,N/A,,Clear,130,2012-11-14 19:35:00
1:55 PM,50.0,23.0,35,30.39,10.0,SE,6.9,-,N/A,,Clear,140,2012-11-14 19:55:00
2:15 PM,50.0,23.0,35,30.38,10.0,SE,6.9,-,N/A,,Clear,130,2012-11-14 20:15:00
2:35 PM,50.0,23.0,35,30.37,10.0,SSE,8.1,-,N/A,,Clear,160,2012-11-14 20:35:00
2:55 PM,50.0,23.0,35,30.36,10.0,Calm,Calm,-,N/A,,Clear,0,2012-11-14 20:55:00
3:15 PM,50.0,23.0,35,30.36,10.0,SE,6.9,-,N/A,,Clear,140,2012-11-14 21:15:00
3:35 PM,50.0,23.0,35,30.37,10.0,SSE,4.6,-,N/A,,Clear,160,2012-11-14 21:35:00
3:55 PM,50.0,24.8,37,30.37,10.0,Calm,Calm,-,N/A,,Clear,0,2012-11-14 21:55:00
4:15 PM,50.0,23.0,35,30.36,10.0,Calm,Calm,-,N/A,,Clear,0,2012-11-14 22:15:00
4:35 PM,48.2,24.8,40,30.35,10.0,Calm,Calm,-,N/A,,Clear,0,2012-11-14 22:35:00
4:55 PM,46.4,23.0,40,30.35,10.0,Calm,Calm,-,N/A,,Clear,0,2012-11-14 22:55:00
5:15 PM,46.4,19.4,34,30.35,10.0,Calm,Calm,-,N/A,,Clear,0,2012-11-14 23:15:00
5:35 PM,46.4,19.4,34,30.35,10.0,Calm,Calm,-,N/A,,Clear,0,2012-11-14 23:35:00
5:55 PM,46.4,19.4,34,30.36,10.0,East,3.5,-,N/A,,Clear,100,2012-11-14 23:55:00
6:15 PM,44.6,19.4,37,30.36,10.0,East,5.8,-,N/A,,Clear,100,2012-11-15 00:15:00
6:35 PM,44.6,21.2,39,30.36,10.0,East,6.9,-,N/A,,Clear,100,2012-11-15 00:35:00
6:55 PM,44.6,21.2,39,30.36,10.0,ESE,5.8,-,N/A,,Clear,110,2012-11-15 00:55:00
7:15 PM,37.4,24.8,60,30.36,10.0,Calm,Calm,-,N/A,,Clear,0,2012-11-15 01:15:00
7:35 PM,41.0,23.0,49,30.36,10.0,East,5.8,-,N/A,,Clear,100,2012-11-15 01:35:00
7:55 PM,35.6,26.6,70,30.36,10.0,Calm,Calm,-,N/A,,Clear,0,2012-11-15 01:55:00
8:35 PM,32.0,26.6,80,30.36,10.0,Calm,Calm,-,N/A,,Clear,0,2012-11-15 02:35:00
8:55 PM,32.0,26.6,80,30.35,10.0,Calm,Calm,-,N/A,,Clear,0,2012-11-15 02:55:00
9:15 PM,32.0,26.6,80,30.36,10.0,Calm,Calm,-,N/A,,Clear,0,2012-11-15 03:15:00
9:35 PM,30.2,24.8,80,30.36,10.0,Calm,Calm,-,N/A,,Clear,0,2012-11-15 03:35:00
9:55 PM,30.2,24.8,80,30.36,10.0,Calm,Calm,-,N/A,,Clear,0,2012-11-15 03:55:00
10:15 PM,32.0,24.8,75,30.36,10.0,Calm,Calm,-,N/A,,Clear,0,2012-11-15 04:15:00
10:35 PM,30.2,24.8,80,30.36,10.0,Calm,Calm,-,N/A,,Clear,0,2012-11-15 04:35:00
10:55 PM,28.4,24.8,86,30.36,10.0,Calm,Calm,-,N/A,,Clear,0,2012-11-15 04:55:00
11:15 PM,28.4,24.8,86,30.35,10.0,Calm,Calm,-,N/A,,Clear,0,2012-11-15 05:15:00
11:35 PM,28.4,26.6,93,30.35,10.0,Calm,Calm,-,N/A,,Clear,0,2012-11-15 05:35:00
11:55 PM,28.4,26.6,93,30.35,10.0,Calm,Calm,-,N/A,,Clear,0,2012-11-15 05:55:00